AIC5EV VABB-VOHS

Flight info

Callsign AIC5EV
Flight time 0h 55m
Altitude 39000
Route VEVAK2A PPN W28 PONIP NAMSA8
Aircraft B789/H-SDE1E2E3FGHIJ2J3J4J5M1RWXY/LB1D1

Departure

Time 2026-04-20 06:31
Airport Chhatrapati Shivaji Maharaj International Airport (VABB)

Arrival

Time 2026-04-20 07:27
Airport Rajiv Gandhi International Airport (VOHS)
Time Latitude Longitude Altitude Speed Heading
2026-04-20 06:11 19.09412 72.87292 54 ft 0 kts 299°
2026-04-20 06:21 19.09406 72.87304 47 ft 2 kts 298°
2026-04-20 06:22 19.09399 72.87319 47 ft 2 kts 296°
2026-04-20 06:22 19.09391 72.87335 47 ft 2 kts 294°
2026-04-20 06:22 19.09385 72.87351 47 ft 2 kts 289°
2026-04-20 06:22 19.09381 72.87368 49 ft 2 kts 277°
2026-04-20 06:23 19.09383 72.87386 47 ft 2 kts 243°
2026-04-20 06:23 19.09390 72.87396 47 ft 1 kts 226°
2026-04-20 06:25 19.09384 72.87390 50 ft 4 kts 219°
2026-04-20 06:26 19.09358 72.87373 48 ft 5 kts 207°
2026-04-20 06:26 19.09326 72.87369 48 ft 6 kts 184°
2026-04-20 06:26 19.09274 72.87359 50 ft 8 kts 208°
2026-04-20 06:26 19.09244 72.87311 51 ft 9 kts 242°
2026-04-20 06:27 19.09193 72.87266 51 ft 9 kts 191°
2026-04-20 06:27 19.09126 72.87265 48 ft 10 kts 181°
2026-04-20 06:27 19.09065 72.87285 49 ft 8 kts 135°
2026-04-20 06:27 19.09051 72.87321 50 ft 4 kts 95°
2026-04-20 06:28 19.09051 72.87371 50 ft 11 kts 89°
2026-04-20 06:28 19.09052 72.87480 50 ft 19 kts 89°
2026-04-20 06:28 19.09054 72.87649 49 ft 24 kts 88°
2026-04-20 06:28 19.09058 72.87826 49 ft 24 kts 90°
2026-04-20 06:29 19.09060 72.87989 54 ft 13 kts 89°
2026-04-20 06:29 19.09029 72.88044 51 ft 4 kts 162°
2026-04-20 06:29 19.08990 72.88051 49 ft 11 kts 175°
2026-04-20 06:29 19.08897 72.88015 48 ft 13 kts 239°
2026-04-20 06:30 19.08888 72.87933 53 ft 10 kts 269°
2026-04-20 06:30 19.08887 72.87912 53 ft 0 kts 268°
2026-04-20 06:30 19.08886 72.87886 53 ft 13 kts 268°
2026-04-20 06:31 19.08881 72.87557 53 ft 82 kts 269°
2026-04-20 06:31 19.08868 72.86701 49 ft 149 kts 269°
2026-04-20 06:31 19.08842 72.85490 403 ft 170 kts 265°
2026-04-20 06:31 19.08772 72.84245 1090 ft 174 kts 265°
2026-04-20 06:32 19.08665 72.82899 1524 ft 197 kts 266°
2026-04-20 06:32 19.08676 72.81416 1998 ft 202 kts 274°
2026-04-20 06:32 19.08766 72.79887 2588 ft 215 kts 274°
2026-04-20 06:32 19.08785 72.78243 3180 ft 232 kts 270°
2026-04-20 06:33 19.08415 72.76563 3701 ft 241 kts 239°
2026-04-20 06:33 19.07222 72.75368 4218 ft 246 kts 207°
2026-04-20 06:33 19.05538 72.74991 4723 ft 250 kts 180°
2026-04-20 06:33 19.03795 72.74972 5233 ft 250 kts 180°
2026-04-20 06:34 19.02037 72.74948 5761 ft 255 kts 181°
2026-04-20 06:34 19.00225 72.74897 6322 ft 275 kts 181°
2026-04-20 06:34 18.96214 72.74782 7436 ft 294 kts 181°
2026-04-20 06:35 18.94143 72.74728 8010 ft 298 kts 181°
2026-04-20 06:35 18.92056 72.74672 8591 ft 299 kts 181°
2026-04-20 06:35 18.89992 72.74616 9146 ft 301 kts 181°
2026-04-20 06:35 18.87893 72.74559 9735 ft 302 kts 180°
2026-04-20 06:36 18.85773 72.74502 10273 ft 304 kts 181°
2026-04-20 06:36 18.83664 72.74445 10803 ft 305 kts 181°
2026-04-20 06:36 18.81569 72.74590 11352 ft 304 kts 161°
2026-04-20 06:36 18.79680 72.75619 11951 ft 307 kts 138°
2026-04-20 06:37 18.78367 72.77373 12560 ft 309 kts 114°
2026-04-20 06:37 18.77852 72.79579 13181 ft 320 kts 92°
2026-04-20 06:37 18.77869 72.82025 13661 ft 340 kts 89°
2026-04-20 06:37 18.77953 72.84561 14092 ft 358 kts 89°
2026-04-20 06:38 18.78039 72.87247 14530 ft 375 kts 89°
2026-04-20 06:38 18.78097 72.90066 14987 ft 390 kts 90°
2026-04-20 06:38 18.78153 72.92974 15420 ft 404 kts 89°
2026-04-20 06:38 18.78238 72.96011 15869 ft 414 kts 87°
2026-04-20 06:39 18.78468 72.99047 16317 ft 420 kts 86°
2026-04-20 06:39 18.78623 73.02118 16762 ft 425 kts 88°
2026-04-20 06:39 18.78770 73.05261 17202 ft 429 kts 87°
2026-04-20 06:39 18.78967 73.08438 17650 ft 432 kts 86°
2026-04-20 06:40 18.79176 73.11571 18088 ft 436 kts 86°
2026-04-20 06:40 18.79363 73.14773 18489 ft 439 kts 87°
2026-04-20 06:40 18.79543 73.18080 18890 ft 446 kts 87°
2026-04-20 06:40 18.79731 73.21310 19270 ft 454 kts 87°
2026-04-20 06:41 18.79934 73.24643 19683 ft 459 kts 87°
2026-04-20 06:41 18.80133 73.28041 20085 ft 462 kts 87°
2026-04-20 06:41 18.80324 73.31423 20495 ft 465 kts 88°
2026-04-20 06:41 18.80519 73.34832 20904 ft 468 kts 88°
2026-04-20 06:42 18.80705 73.38304 21336 ft 471 kts 90°
2026-04-20 06:42 18.80399 73.41679 21774 ft 471 kts 104°
2026-04-20 06:42 18.79401 73.45008 22232 ft 471 kts 116°
2026-04-20 06:42 18.78005 73.48115 22685 ft 474 kts 118°
2026-04-20 06:43 18.76574 73.51276 23129 ft 476 kts 118°
2026-04-20 06:43 18.75155 73.54415 23571 ft 479 kts 118°
2026-04-20 06:43 18.73702 73.57631 23945 ft 482 kts 118°
2026-04-20 06:43 18.72259 73.60821 24325 ft 484 kts 118°
2026-04-20 06:44 18.70793 73.64058 24713 ft 486 kts 118°
2026-04-20 06:44 18.69341 73.67261 25091 ft 488 kts 118°
2026-04-20 06:44 18.67895 73.70455 25480 ft 490 kts 118°
2026-04-20 06:44 18.66426 73.73694 25874 ft 491 kts 118°
2026-04-20 06:45 18.64935 73.76980 26281 ft 492 kts 118°
2026-04-20 06:45 18.63464 73.80219 26681 ft 493 kts 118°
2026-04-20 06:45 18.61966 73.83517 27096 ft 494 kts 119°
2026-04-20 06:45 18.60487 73.86772 27513 ft 495 kts 119°
2026-04-20 06:46 18.59002 73.90037 27933 ft 495 kts 119°
2026-04-20 06:46 18.57582 73.93336 28368 ft 495 kts 117°
2026-04-20 06:46 18.56165 73.96634 28802 ft 494 kts 119°
2026-04-20 06:46 18.54715 73.99860 29233 ft 494 kts 119°
2026-04-20 06:47 18.53244 74.03224 29693 ft 495 kts 118°
2026-04-20 06:47 18.51854 74.06512 30114 ft 494 kts 118°
2026-04-20 06:47 18.50431 74.09830 30500 ft 493 kts 119°
2026-04-20 06:47 18.48998 74.13091 30868 ft 492 kts 120°
2026-04-20 06:48 18.47558 74.16385 31264 ft 491 kts 120°
2026-04-20 06:48 18.46157 74.19636 31655 ft 490 kts 120°
2026-04-20 06:48 18.44742 74.22916 32052 ft 489 kts 120°
2026-04-20 06:48 18.43333 74.26147 32454 ft 487 kts 121°
2026-04-20 06:49 18.41910 74.29406 32856 ft 486 kts 121°
2026-04-20 06:49 18.40514 74.32622 33275 ft 485 kts 121°
2026-04-20 06:49 18.39122 74.35832 33676 ft 483 kts 122°
2026-04-20 06:49 18.37710 74.39072 34085 ft 481 kts 122°
2026-04-20 06:50 18.36330 74.42234 34455 ft 479 kts 122°
2026-04-20 06:50 18.34935 74.45435 34818 ft 477 kts 122°
2026-04-20 06:50 18.33566 74.48578 35195 ft 474 kts 122°
2026-04-20 06:50 18.32184 74.51746 35580 ft 471 kts 122°
2026-04-20 06:51 18.30829 74.54848 35953 ft 468 kts 123°
2026-04-20 06:51 18.29463 74.57974 36348 ft 465 kts 123°
2026-04-20 06:51 18.28127 74.61034 36744 ft 461 kts 123°
2026-04-20 06:51 18.26788 74.64095 37155 ft 458 kts 123°
2026-04-20 06:52 18.25453 74.67147 37554 ft 453 kts 123°
2026-04-20 06:52 18.24138 74.70151 37969 ft 449 kts 123°
2026-04-20 06:52 18.22852 74.73106 38377 ft 445 kts 123°
2026-04-20 06:52 18.21579 74.76068 38762 ft 440 kts 123°
2026-04-20 06:53 18.20326 74.78974 38901 ft 441 kts 123°
2026-04-20 06:53 18.17736 74.84918 38914 ft 451 kts 123°
2026-04-20 06:54 18.15129 74.90952 38924 ft 460 kts 123°
2026-04-20 06:54 18.12449 74.97118 38932 ft 468 kts 123°
2026-04-20 06:55 18.09707 75.03432 38927 ft 477 kts 123°
2026-04-20 06:55 18.06940 75.09792 38927 ft 485 kts 122°
2026-04-20 06:56 18.04111 75.16290 38928 ft 492 kts 122°
2026-04-20 06:56 18.01248 75.22864 38933 ft 494 kts 122°
2026-04-20 06:57 17.98386 75.29423 38930 ft 492 kts 122°
2026-04-20 06:57 17.95548 75.35918 38928 ft 491 kts 122°
2026-04-20 06:58 17.92703 75.42424 38925 ft 489 kts 122°
2026-04-20 06:58 17.89852 75.48935 38921 ft 488 kts 122°
2026-04-20 06:59 17.87022 75.55390 38921 ft 489 kts 122°
2026-04-20 06:59 17.84162 75.61910 38923 ft 491 kts 122°
2026-04-20 07:00 17.81308 75.68409 38922 ft 493 kts 122°
2026-04-20 07:00 17.78917 75.73848 38922 ft 493 kts 122°
2026-04-20 07:01 17.76048 75.80368 38917 ft 491 kts 122°
2026-04-20 07:01 17.73172 75.86895 38918 ft 490 kts 122°
2026-04-20 07:02 17.70333 75.93333 38917 ft 489 kts 122°
2026-04-20 07:02 17.67471 75.99814 38917 ft 490 kts 122°
2026-04-20 07:03 17.64579 76.06304 38920 ft 491 kts 122°
2026-04-20 07:03 17.61673 76.12805 38923 ft 492 kts 122°
2026-04-20 07:04 17.58784 76.19279 38921 ft 492 kts 122°
2026-04-20 07:04 17.55878 76.25768 38927 ft 490 kts 122°
2026-04-20 07:04 17.54415 76.29032 38443 ft 496 kts 122°
2026-04-20 07:05 17.52951 76.32302 37824 ft 494 kts 122°
2026-04-20 07:05 17.51506 76.35533 37227 ft 493 kts 122°
2026-04-20 07:05 17.50043 76.38794 36646 ft 491 kts 122°
2026-04-20 07:05 17.48590 76.42028 36080 ft 490 kts 122°
2026-04-20 07:06 17.47138 76.45262 35533 ft 489 kts 122°
2026-04-20 07:06 17.45704 76.48457 35012 ft 488 kts 122°
2026-04-20 07:06 17.44260 76.51673 34475 ft 487 kts 122°
2026-04-20 07:06 17.42812 76.54891 33955 ft 484 kts 121°
2026-04-20 07:07 17.41412 76.58018 33314 ft 463 kts 121°
2026-04-20 07:07 17.40082 76.60986 32686 ft 445 kts 122°
2026-04-20 07:07 17.38782 76.63865 32062 ft 428 kts 122°
2026-04-20 07:07 17.37520 76.66652 31464 ft 420 kts 121°
2026-04-20 07:08 17.36257 76.69437 30930 ft 425 kts 121°
2026-04-20 07:08 17.35004 76.72221 30395 ft 427 kts 121°
2026-04-20 07:08 17.33735 76.75045 29869 ft 428 kts 120°
2026-04-20 07:08 17.32461 76.77876 29263 ft 428 kts 118°
2026-04-20 07:09 17.31534 76.80828 28727 ft 434 kts 105°
2026-04-20 07:09 17.31179 76.84003 28192 ft 438 kts 96°
2026-04-20 07:09 17.31016 76.87198 27634 ft 438 kts 96°
2026-04-20 07:09 17.30855 76.90350 27090 ft 438 kts 96°
2026-04-20 07:10 17.30698 76.93548 26552 ft 437 kts 96°
2026-04-20 07:10 17.30540 76.96733 26022 ft 437 kts 96°
2026-04-20 07:10 17.30377 76.99915 25505 ft 436 kts 95°
2026-04-20 07:10 17.30216 77.03052 24999 ft 436 kts 95°
2026-04-20 07:11 17.30056 77.06223 24492 ft 434 kts 95°
2026-04-20 07:11 17.29896 77.09385 23992 ft 432 kts 95°
2026-04-20 07:11 17.29736 77.12484 23504 ft 430 kts 95°
2026-04-20 07:11 17.29575 77.15613 22924 ft 428 kts 95°
2026-04-20 07:12 17.29416 77.18719 22349 ft 425 kts 95°
2026-04-20 07:12 17.29256 77.21810 21783 ft 423 kts 94°
2026-04-20 07:12 17.29099 77.24845 21235 ft 420 kts 94°
2026-04-20 07:12 17.28939 77.27915 20689 ft 419 kts 94°
2026-04-20 07:13 17.28783 77.30922 20157 ft 417 kts 94°
2026-04-20 07:13 17.28624 77.33954 19631 ft 414 kts 94°
2026-04-20 07:13 17.28467 77.36956 19112 ft 410 kts 94°
2026-04-20 07:13 17.28313 77.39887 18608 ft 407 kts 94°
2026-04-20 07:14 17.28156 77.42868 18076 ft 403 kts 94°
2026-04-20 07:14 17.28003 77.45768 17498 ft 400 kts 94°
2026-04-20 07:14 17.27851 77.48648 16929 ft 396 kts 94°
2026-04-20 07:14 17.27698 77.51518 16367 ft 392 kts 94°
2026-04-20 07:15 17.27545 77.54358 15813 ft 388 kts 94°
2026-04-20 07:15 17.27397 77.57138 15271 ft 385 kts 94°
2026-04-20 07:15 17.27248 77.59925 14740 ft 381 kts 94°
2026-04-20 07:15 17.27100 77.62686 14214 ft 377 kts 94°
2026-04-20 07:16 17.26952 77.65423 13688 ft 373 kts 94°
2026-04-20 07:16 17.26809 77.68088 13114 ft 370 kts 94°
2026-04-20 07:16 17.26666 77.70733 12549 ft 366 kts 94°
2026-04-20 07:16 17.26523 77.73348 11992 ft 339 kts 94°
2026-04-20 07:17 17.26328 77.75713 11464 ft 321 kts 98°
2026-04-20 07:17 17.26140 77.77970 10979 ft 307 kts 93°
2026-04-20 07:17 17.26036 77.80187 10554 ft 303 kts 94°
2026-04-20 07:17 17.25877 77.82377 10147 ft 301 kts 95°
2026-04-20 07:18 17.25686 77.84566 9734 ft 299 kts 95°
2026-04-20 07:18 17.25511 77.86728 9344 ft 295 kts 94°
2026-04-20 07:18 17.25356 77.88829 8975 ft 293 kts 94°
2026-04-20 07:18 17.25195 77.90945 8596 ft 290 kts 94°
2026-04-20 07:19 17.25030 77.93042 8231 ft 287 kts 94°
2026-04-20 07:19 17.24867 77.95119 7851 ft 285 kts 94°
2026-04-20 07:19 17.24706 77.97185 7501 ft 283 kts 94°
2026-04-20 07:19 17.24547 77.99234 7135 ft 281 kts 94°
2026-04-20 07:20 17.24388 78.01272 6793 ft 281 kts 94°
2026-04-20 07:20 17.24229 78.03307 6448 ft 280 kts 93°
2026-04-20 07:20 17.24069 78.05310 6087 ft 279 kts 93°
2026-04-20 07:20 17.23914 78.07307 5798 ft 268 kts 93°
2026-04-20 07:21 17.23763 78.09223 5475 ft 260 kts 93°
2026-04-20 07:21 17.23621 78.11065 5143 ft 253 kts 93°
2026-04-20 07:21 17.23480 78.12835 4785 ft 237 kts 93°
2026-04-20 07:21 17.23343 78.14560 4436 ft 235 kts 93°
2026-04-20 07:22 17.23211 78.16230 4087 ft 231 kts 92°
2026-04-20 07:22 17.23082 78.17891 3736 ft 228 kts 92°
2026-04-20 07:22 17.22947 78.19532 3580 ft 223 kts 94°
2026-04-20 07:22 17.22549 78.21127 3577 ft 227 kts 103°
2026-04-20 07:23 17.22430 78.22777 3584 ft 229 kts 88°
2026-04-20 07:23 17.22456 78.24429 3594 ft 228 kts 87°
2026-04-20 07:23 17.22487 78.26019 3577 ft 208 kts 86°
2026-04-20 07:23 17.22517 78.27499 3576 ft 200 kts 86°
2026-04-20 07:24 17.22549 78.28942 3577 ft 196 kts 86°
2026-04-20 07:24 17.22583 78.30349 3579 ft 196 kts 86°
2026-04-20 07:24 17.22614 78.31781 3584 ft 194 kts 86°
2026-04-20 07:24 17.22641 78.33122 3471 ft 175 kts 86°
2026-04-20 07:25 17.22667 78.34317 3262 ft 155 kts 85°
2026-04-20 07:25 17.22696 78.35413 3104 ft 150 kts 85°
2026-04-20 07:25 17.22722 78.36521 2912 ft 154 kts 85°
2026-04-20 07:25 17.22747 78.37637 2704 ft 153 kts 86°
2026-04-20 07:26 17.22771 78.38749 2510 ft 152 kts 86°
2026-04-20 07:26 17.22794 78.39839 2256 ft 145 kts 85°
2026-04-20 07:26 17.22838 78.40896 2103 ft 150 kts 87°
2026-04-20 07:26 17.22872 78.41965 1987 ft 136 kts 87°
2026-04-20 07:27 17.22879 78.42764 1985 ft 79 kts 89°
2026-04-20 07:27 17.22890 78.43265 1986 ft 56 kts 82°
2026-04-20 07:27 17.22998 78.43538 1987 ft 30 kts 56°
2026-04-20 07:27 17.23103 78.43682 1988 ft 19 kts 28°
2026-04-20 07:28 17.23210 78.43687 1985 ft 14 kts 359°
2026-04-20 07:28 17.23270 78.43692 1988 ft 7 kts
2026-04-20 07:28 17.23312 78.43691 1987 ft 6 kts 358°
2026-04-20 07:28 17.23333 78.43685 1988 ft 0 kts 330°
2026-04-20 07:29 17.23347 78.43667 1986 ft 11 kts 301°
2026-04-20 07:29 17.23366 78.43599 1985 ft 9 kts 271°
2026-04-20 07:29 17.23367 78.43528 1985 ft 12 kts 270°
2026-04-20 07:29 17.23366 78.43413 1985 ft 19 kts 269°
2026-04-20 07:30 17.23365 78.43275 1987 ft 19 kts 269°
2026-04-20 07:30 17.23341 78.43153 1988 ft 15 kts 255°
2026-04-20 07:30 17.23331 78.43054 1988 ft 12 kts 271°
2026-04-20 07:30 17.23332 78.42994 1988 ft 0 kts 271°
2026-04-20 07:31 17.23334 78.42989 1988 ft 0 kts 289°
2026-04-20 07:31 17.23344 78.42973 1986 ft 3 kts 317°
2026-04-20 07:31 17.23357 78.42969 1988 ft 3 kts 347°
2026-04-20 07:31 17.23376 78.42969 1988 ft 2 kts
2026-04-20 07:32 17.23393 78.42969 1987 ft 3 kts
2026-04-20 07:32 17.23411 78.42970 1988 ft 2 kts 359°
2026-04-20 07:32 17.23419 78.42970 1989 ft 1 kts 359°
2026-04-20 07:32 17.23422 78.42970 1989 ft 0 kts 359°